Stations météo

réclame
Mon MeteoGroup
Gotska sandoen, Suède (2589): Température de l'air & dewpoint: 12.02.2019 20:00:00 - 18.02.2019 20:00:00 (CET)Gotska sandoen, Suède (2589): Vitesse du vent & gusts: 12.02.2019 20:00:00 - 18.02.2019 20:00:00 (CET)Gotska sandoen, Suède (2589): Direction du vent: 12.02.2019 20:00:00 - 18.02.2019 20:00:00 (CET)Gotska sandoen, Suède (2589): reduced air pressure: 12.02.2019 20:00:00 - 18.02.2019 20:00:00 (CET)Gotska sandoen, Suède (2589): visibility: 12.02.2019 20:00:00 - 18.02.2019 20:00:00 (CET)Gotska sandoen, Suède (2589): Quantités de précipitations: 12.02.2019 20:00:00 - 18.02.2019 20:00:00 (CET)
Date & Time tt [°C] td [°C] ff [km/h] ff [knt] fx [km/h] fx [knt] dd ppp [hPa] vv [km] rr [mm]
18.02.2019 20:00:00 - - - - - - - - - -
18.02.2019 19:00:00 3,2 2,8 25 14 42 23 SW 1012,1 5 0,0
18.02.2019 18:00:00 2,8 2,2 18 10 43 23 SW 1012,6 22 0,0
18.02.2019 17:00:00 2,9 1,9 24 13 47 26 SSW 1012,8 38 0,0
18.02.2019 16:00:00 3,4 2,1 27 14 47 26 SSW 1013,2 49 0,0
18.02.2019 15:00:00 4,3 2,5 24 13 46 25 SSW 1013,8 45 0,0
18.02.2019 14:00:00 4,5 2,8 23 13 45 24 SSW 1014,6 46 0,0
18.02.2019 13:00:00 4,2 3,3 24 13 45 24 SSW 1015,5 20 0,0
18.02.2019 12:00:00 4,0 3,6 23 12 40 21 SSW 1016,9 18 0,0
18.02.2019 11:00:00 2,8 2,7 21 11 40 21 SSW 1017,7 2,9 0,0
18.02.2019 10:00:00 2,7 2,6 23 13 40 21 SSW 1018,4 1,3 0,0
18.02.2019 09:00:00 2,5 2,4 21 11 37 20 SSW 1019,0 0,9 0,0
18.02.2019 08:00:00 2,4 2,3 22 12 37 20 S 1019,3 1,3 0,0
18.02.2019 07:00:00 2,6 2,5 17 9 31 17 S 1019,5 1,1 0,0
18.02.2019 06:00:00 2,7 2,4 16 8 31 17 SSW 1020,0 2,0 0,0
18.02.2019 05:00:00 3,0 2,1 19 10 31 17 SSW 1020,4 15 0,0
18.02.2019 04:00:00 3,0 1,2 16 9 31 17 S 1020,5 50 0,0
18.02.2019 03:00:00 2,6 0,7 14 8 24 13 S 1021,1 48 0,0
18.02.2019 02:00:00 2,2 0,7 14 7 22 12 S 1021,6 49 0,0
18.02.2019 01:00:00 1,1 -0,2 11 6 19 10 S 1022,0 45 0,0
18.02.2019 00:00:00 1,7 0,2 10 6 16 9 SSW 1022,0 49 0,0
17.02.2019 23:00:00 1,5 -0,9 8 5 15 8 S 1022,0 50 0,0
17.02.2019 22:00:00 1,4 -1,0 8 5 13 7 S 1022,1 43 0,0
17.02.2019 21:00:00 1,3 -1,3 8 5 13 7 S 1022,1 49 0,0
17.02.2019 20:00:00 1,3 -1,6 4 2 9 5 SSE 1021,9 48 0,0
17.02.2019 19:00:00 1,1 -1,5 5 3 9 5 ESE 1021,8 49 0,0
17.02.2019 18:00:00 1,3 -0,8 5 3 10 5 E 1021,7 47 0,0
17.02.2019 17:00:00 1,3 -0,6 5 3 10 5 ENE 1021,3 45 0,0
17.02.2019 16:00:00 2,0 -1,3 4 2 9 5 NW 1020,9 47 0,0
17.02.2019 15:00:00 2,6 -1,0 4 2 9 5 NNW 1020,8 50 0,0
17.02.2019 14:00:00 2,8 -0,7 6 3 10 6 N 1020,6 48 0,0
17.02.2019 13:00:00 2,9 -0,9 6 3 14 7 N 1020,4 42 0,0
17.02.2019 12:00:00 2,7 0,1 6 3 14 8 NNW 1020,1 42 0,0
17.02.2019 11:00:00 2,6 0,0 7 4 14 8 NNW 1019,5 47 0,0
17.02.2019 10:00:00 2,1 0,3 10 5 17 9 NNW 1019,1 36 0,0
17.02.2019 09:00:00 0,9 0,6 8 5 17 9 NNW 1018,7 29 0,0
17.02.2019 08:00:00 0,1 0,0 10 5 16 9 NNW 1018,1 9 0,0
17.02.2019 07:00:00 0,1 -0,2 10 5 19 11 NNW 1017,2 5 0,0
17.02.2019 06:00:00 0,7 0,4 11 6 19 11 NNW 1016,6 4,8 0,0
17.02.2019 05:00:00 1,3 1,0 11 6 20 11 NNW 1016,3 3,1 0,0
17.02.2019 04:00:00 1,6 1,3 10 5 23 13 NW 1015,8 3,4 0,0
17.02.2019 03:00:00 1,8 1,5 13 7 27 15 NNW 1015,2 3,9 0,0
17.02.2019 02:00:00 2,4 2,0 16 9 27 15 NW 1014,2 6 0,0
17.02.2019 01:00:00 2,4 2,0 16 8 29 16 NW 1013,7 6 0,0
17.02.2019 00:00:00 3,0 2,3 15 8 30 16 NW 1013,1 8 0,0
16.02.2019 23:00:00 3,4 2,4 18 10 38 20 NW 1012,3 8 0,0
16.02.2019 22:00:00 4,6 2,9 21 11 38 20 NW 1011,7 11 0,0
16.02.2019 21:00:00 4,4 2,4 16 9 42 23 WNW 1011,1 15 0,0
16.02.2019 20:00:00 4,9 2,3 21 12 49 26 W 1010,9 32 0,0
16.02.2019 19:00:00 4,9 1,7 33 18 56 30 W 1009,7 31 0,0
16.02.2019 18:00:00 6,0 1,3 38 21 56 30 WSW 1009,0 38 0,0
16.02.2019 17:00:00 5,2 1,3 36 20 54 29 WSW 1008,9 30 0,0
16.02.2019 16:00:00 4,8 1,6 32 17 54 29 WSW 1009,7 20 0,0
16.02.2019 15:00:00 4,9 1,5 32 18 54 29 WSW 1010,3 15 0,0
16.02.2019 14:00:00 5,5 1,2 32 17 50 27 WSW 1010,9 19 0,0
16.02.2019 13:00:00 5,4 1,3 31 17 51 27 WSW 1011,8 17 0,0
16.02.2019 12:00:00 5,5 1,2 30 16 58 31 WSW 1012,8 18 0,0
16.02.2019 11:00:00 5,1 1,0 34 19 58 31 WSW 1013,3 15 0,0
16.02.2019 10:00:00 4,9 1,0 34 18 51 28 WSW 1013,6 18 0,0
16.02.2019 09:00:00 4,3 0,6 33 18 50 27 WSW 1014,5 21 0,0
16.02.2019 08:00:00 3,8 0,5 30 16 50 27 WSW 1015,2 21 0,0
16.02.2019 07:00:00 3,4 0,6 30 16 49 27 WSW 1015,6 16 0,0
16.02.2019 06:00:00 3,6 0,6 31 17 48 26 WSW 1016,1 14 0,0
16.02.2019 05:00:00 3,5 0,9 31 17 48 26 WSW 1016,7 16 0,0
16.02.2019 04:00:00 3,4 1,0 28 15 48 26 WSW 1017,4 27 0,0
16.02.2019 03:00:00 3,4 1,0 30 16 45 24 WSW 1018,2 45 0,0
16.02.2019 02:00:00 3,2 1,4 26 14 43 23 WSW 1019,0 47 0,0
16.02.2019 01:00:00 3,4 1,4 27 14 43 23 WSW 1019,6 46 0,0
16.02.2019 00:00:00 3,8 1,3 26 14 42 23 WSW 1019,9 50 0,0
15.02.2019 23:00:00 3,8 1,3 28 15 40 22 WSW 1020,2 50 0,0
15.02.2019 22:00:00 3,6 1,6 25 13 39 21 WSW 1020,7 50 0,0
15.02.2019 21:00:00 4,2 2,1 23 12 40 21 WSW 1020,9 50 0,0
15.02.2019 20:00:00 4,1 2,6 25 14 40 21 WSW 1021,0 38 0,0
15.02.2019 19:00:00 3,8 2,8 22 12 40 21 WSW 1021,5 34 0,0
15.02.2019 18:00:00 4,0 3,0 24 13 41 22 WSW 1021,8 39 0,0
15.02.2019 17:00:00 3,9 3,3 26 14 41 22 WSW 1022,0 33 0,0
15.02.2019 16:00:00 4,2 3,3 24 13 37 20 WSW 1022,6 44 0,0
15.02.2019 15:00:00 4,5 3,5 23 13 46 25 WSW 1023,0 42 0,0
15.02.2019 14:00:00 4,6 3,6 26 14 46 25 WSW 1023,2 43 0,0
15.02.2019 13:00:00 4,9 3,9 23 13 36 19 WSW 1023,7 42 0,0
15.02.2019 12:00:00 5,1 3,8 21 12 36 19 WSW 1024,1 27 0,0
15.02.2019 11:00:00 4,5 3,6 21 12 36 19 WSW 1024,3 22 0,0
15.02.2019 10:00:00 4,2 3,6 20 11 34 18 WSW 1024,3 15 0,0
15.02.2019 09:00:00 3,5 3,2 21 11 32 18 WSW 1024,2 9 0,0
15.02.2019 08:00:00 3,2 2,9 21 11 32 18 WSW 1023,6 8 0,0
15.02.2019 07:00:00 3,0 2,7 20 11 37 20 W 1023,3 7 0,0
15.02.2019 06:00:00 3,4 3,1 23 12 37 20 W 1022,8 8 0,0
15.02.2019 05:00:00 3,2 2,9 22 12 36 19 W 1022,8 8 0,0
15.02.2019 04:00:00 3,1 2,7 19 10 37 20 W 1022,8 9 0,0
15.02.2019 03:00:00 3,2 2,6 21 11 37 20 W 1022,7 10 0,0
15.02.2019 02:00:00 3,2 2,6 22 12 36 20 W 1022,5 10 0,0
15.02.2019 01:00:00 3,2 2,6 21 12 35 19 W 1022,4 10 0,0
15.02.2019 00:00:00 3,5 2,8 20 11 37 20 W 1022,7 11 0,0
14.02.2019 23:00:00 3,4 2,7 22 12 39 21 W 1022,2 13 0,0
14.02.2019 22:00:00 3,6 3,0 25 13 44 24 W 1021,8 15 0,0
14.02.2019 21:00:00 3,7 3,0 27 14 44 24 W 1021,5 17 0,0
14.02.2019 20:00:00 3,8 3,1 29 16 45 24 WSW 1020,9 19 0,0
14.02.2019 19:00:00 4,4 3,4 30 16 47 25 WSW 1021,0 22 0,0
14.02.2019 18:00:00 4,3 3,4 29 16 47 25 WSW 1021,3 31 0,0
14.02.2019 17:00:00 3,9 3,2 29 16 43 23 WSW 1021,7 39 0,0
14.02.2019 16:00:00 4,1 3,2 27 15 43 23 WSW 1021,9 42 0,0
14.02.2019 15:00:00 4,4 3,5 24 13 41 22 WSW 1022,4 40 0,0
14.02.2019 14:00:00 4,4 3,7 27 15 41 22 WSW 1022,8 43 0,0
14.02.2019 13:00:00 4,2 3,5 26 14 41 22 WSW 1023,5 28 0,0
14.02.2019 12:00:00 3,7 3,3 23 13 34 19 WSW 1024,4 16 0,0
14.02.2019 11:00:00 3,7 3,3 23 12 36 19 W 1024,5 16 0,0
14.02.2019 10:00:00 3,2 2,9 21 12 37 20 W 1024,1 8 0,0
14.02.2019 09:00:00 2,6 2,0 19 10 37 20 W 1024,3 8 0,0
14.02.2019 08:00:00 2,4 1,4 18 10 29 16 WSW 1024,4 8 0,0
14.02.2019 07:00:00 2,0 1,0 17 9 30 16 W 1023,8 8 0,0
14.02.2019 06:00:00 1,9 0,9 18 10 30 16 W 1023,7 10 0,0
14.02.2019 05:00:00 1,7 0,7 16 8 28 15 W 1023,4 15 0,0
14.02.2019 04:00:00 1,4 0,4 13 7 27 14 W 1023,1 18 0,0
14.02.2019 03:00:00 1,9 0,6 15 8 29 15 WNW 1022,5 20 0,0
14.02.2019 02:00:00 1,9 0,6 15 8 32 17 W 1021,8 21 0,0
14.02.2019 01:00:00 2,1 0,8 16 8 32 17 WNW 1021,4 21 0,0
14.02.2019 00:00:00 2,1 0,8 17 9 29 15 W 1020,6 23 0,0
13.02.2019 23:00:00 1,9 0,7 16 9 30 16 NW 1019,7 27 0,0
13.02.2019 22:00:00 2,1 0,9 18 10 36 19 NW 1018,7 30 0,0
13.02.2019 21:00:00 2,7 1,1 20 11 35 19 NW 1017,8 35 0,0
13.02.2019 20:00:00 2,9 1,3 21 11 38 20 WNW 1017,4 44 0,0
13.02.2019 19:00:00 3,2 1,6 21 11 38 20 WNW 1016,7 37 0,0
13.02.2019 18:00:00 3,0 1,7 19 11 39 21 W 1016,3 31 0,0
13.02.2019 17:00:00 3,5 1,7 21 11 41 22 W 1015,7 50 0,0
13.02.2019 16:00:00 4,4 1,8 25 13 41 22 WNW 1015,0 50 0,0
13.02.2019 15:00:00 4,0 2,0 19 10 39 21 WNW 1014,1 43 0,0
13.02.2019 14:00:00 4,5 2,5 20 11 41 22 WNW 1013,3 44 0,0
13.02.2019 13:00:00 4,4 2,8 22 12 41 22 WNW 1012,5 50 0,0
13.02.2019 12:00:00 4,4 3,2 20 11 41 22 NW 1011,3 42 0,0
13.02.2019 11:00:00 3,7 3,1 21 11 43 23 NW 1010,0 26 0,0
13.02.2019 10:00:00 3,4 3,1 24 13 46 25 NW 1008,7 15 0,0
13.02.2019 09:00:00 3,4 3,3 26 14 46 25 WNW 1007,6 11 0,0
13.02.2019 08:00:00 2,9 2,8 26 14 43 23 W 1006,7 8 0,2
13.02.2019 07:00:00 2,7 2,6 27 15 50 27 W 1006,3 12 0,3
13.02.2019 06:00:00 2,4 2,3 25 13 51 28 W 1006,9 13 0,1
13.02.2019 05:00:00 2,2 2,1 27 15 51 28 WSW 1008,2 3,5 0,0
13.02.2019 04:00:00 1,9 1,8 31 17 53 29 WSW 1009,5 16 0,1
13.02.2019 03:00:00 0,8 0,7 30 16 53 29 SW 1010,9 3,0 0,8
13.02.2019 02:00:00 1,0 0,7 27 14 47 25 WSW 1012,4 7 0,3
13.02.2019 01:00:00 0,9 0,2 24 13 47 25 WSW 1014,7 4,3 0,1
13.02.2019 00:00:00 1,6 -2,4 29 15 46 25 W 1016,2 50 0,0
12.02.2019 23:00:00 1,5 -2,8 27 15 41 22 W 1016,8 50 0,0
12.02.2019 22:00:00 1,0 -3,3 24 13 41 22 W 1017,7 50 0,0
12.02.2019 21:00:00 1,1 -3,1 22 12 40 21 W 1018,3 50 0,0
12.02.2019 20:00:00 0,8 -4,2 18 10 40 22 WNW 1018,2 50 0,0

tt = Température de l'air
td = dewpoint
ff = Vitesse du vent
fx = gusts
dd = Direction du vent
ppp = reduced air pressure
vv = visibility
rr = Quantités de précipitations

stations d'obs. à proximité